Regional Weather Roundup
Issued by NWS State College, PA

Home | Current Version | Previous Version | Text Only | Print | Product List | Glossary On
Versions: 1 2 3 4 5 6 7 8 9 10 11 12 13 14 15 16 17 18 19 20 21 22 23 24 25 26 27 28 29 30 31 32 33 34 35 36 37 38 39 40 41 42 43 44 45 46 47 48 49 50
000
ASUS41 KCTP 230410
RWRCTP

REGIONAL WEATHER ROUNDUP
NATIONAL WEATHER SERVICE STATE COLLEGE PA
1200 AM EDT WED JUL 23 2014

Note: "fair" indicates few or no clouds below 12,000 feet with no
significant weather and/or obstructions to visibility.

* = STATION THAT DOES NOT REPORT PRECIPITATION /E.G. RAIN...SNOW...ETC/
    THUNDER OR FOG.

PAZ002>004-007>009-013>016-020>023-029>032-230500-
WESTERN PENNSYLVANIA

CITY           SKY/WX    TMP DP  RH WIND       PRES   REMARKS
ERIE           CLEAR     78  67  68 S8        29.97S
MEADVILLE      NOT AVBL
FRANKLIN*      CLEAR     72  64  78 SW5       30.05F
NEW CASTLE       N/A     74  69  84 CALM      30.03F
BEAVER COUNTY  NOT AVBL
BUTLER*        CLEAR     73  66  78 S3        30.06S
PITTSBURGH INT CLEAR     75  69  81 S3        30.04S
PITTSBURGH     CLEAR     76  67  73 S7        30.04F
INDIANA*       CLOUDY    73  70  88 CALM      30.10S
LATROBE        CLEAR     72  70  94 CALM      30.06S
WASHINGTON CO* CLEAR     68  66  94 CALM      30.06S
$$

PAZ004>006-010>012-017>019-024>028-033>037-041-042-045-046-049>053-230500-
CENTRAL PENNSYLVANIA

CITY           SKY/WX    TMP DP  RH WIND       PRES   REMARKS
BRADFORD       CLEAR     68  64  87 CALM      30.07S
DUBOIS         CLEAR     74  68  81 VRB3      30.06S
CLEARFIELD     PTCLDY    72  69  90 CALM      30.07F
JOHNSTOWN      CLEAR     71  67  87 S6        30.12S
ALTOONA        PTCLDY    73  69  87 S3        30.09F
STATE COLLEGE  PTCLDY    73  69  85 SW6       30.07S
WILLIAMSPORT   CLOUDY    76  69  79 CALM      30.01F
SELINSGROVE    CLEAR     75  70  84 S5        30.04F
FT INDIANTOWN  MOCLDY    74  73  96 CALM      30.07F
CAPITAL CITY   CLEAR     76  68  76 S9        30.05F
HARRISBURG     PTCLDY    78  68  71 SW10      30.05F
YORK           CLEAR     73  67  81 S3        30.07F
$$

PAZ038>040-043-044-047-048-054-055-060>062-067>071-230500-
EASTERN PENNSYLVANIA

CITY           SKY/WX    TMP DP  RH WIND       PRES   REMARKS
SCRANTON       CLEAR     76  68  76 SW8       30.05S
MOUNT POCONO   CLEAR     71  66  84 W9        30.11F
ALLENTOWN      CLEAR     76  66  71 SW8       30.05F
QUAKERTOWN*    CLEAR     72  64  78 S3        30.08F
READING        CLEAR     76  66  71 S7        30.05F
LANCASTER      CLEAR     74  65  73 S6        30.06F
COATESVILLE    CLEAR     68  66  94 CALM      30.10F
POTTSTOWN      CLEAR     73  64  73 S3        30.08F
BLUE BELL      CLEAR     72  63  73 SW3       30.07F
DOYLESTOWN     CLEAR     72  63  73 VRB5      30.07F
WILLOW GROVE   NOT AVBL
NORTH PHILA    CLEAR     76  58  53 SW6       30.09F
PHILADELPHIA   CLEAR     75  59  57 SW7       30.08F
$$



USA.gov is the U.S. government's official web portal to all federal, state and local government web resources and services.